Location: Glencliff
(36.1226°N, 86.7183°W)
Time: 13:39:55
(UTC+00:00)

STARLINK-81 - Visible Passes

Search period start: 11 December 2019 00:00
Search period end: 21 December 2019 00:00
Orbit: 529 x 530 km, 53.0° (Epoch: 11 December)

Date Brightness Start Highest point End Pass type
(mag) Time Alt. Az. Time Alt. Az. Time Alt. Az.
12 Dec 6.4 01:07:51 10° SSW 01:08:07 12° SSW 01:08:07 12° SSW visible
13 Dec 5.6 00:55:50 10° SSW 00:57:20 22° SSW 00:57:20 22° SSW visible
14 Dec 4.7 00:43:54 10° SW 00:46:31 39° SSW 00:46:31 39° SSW visible
15 Dec 3.7 00:32:04 10° SW 00:35:41 71° WSW 00:35:41 71° WSW visible
16 Dec 3.6 00:20:19 10° SW 00:24:19 69° NW 00:24:50 61° N visible
17 Dec 4.0 00:08:40 10° WSW 00:12:37 56° NW 00:13:56 37° NNE visible
17 Dec 4.3 23:57:05 10° WSW 00:00:58 45° NW 00:03:01 24° NNE visible
18 Dec 4.7 23:45:36 10° WSW 23:49:22 37° NW 23:52:04 17° NNE visible
19 Dec 4.9 23:34:12 10° W 23:37:50 31° NW 23:41:07 12° NNE visible
20 Dec 5.2 23:22:53 10° W 23:26:21 27° NNW 23:29:49 10° NNE visible
